Regional Weather Roundup
Issued by NWS Bismarck, ND

Home | Current Version | Previous Version | Text Only | Print | Product List | Glossary On
Versions: 1 2 3 4 5 6 7 8 9 10 11 12 13 14 15 16 17 18 19 20 21 22 23 24 25 26 27 28 29 30 31 32 33 34 35 36 37 38 39 40 41 42 43 44 45 46 47 48 49 50
000
ASUS43 KBIS 291810
RWRBIS

NWR BROADCAST TEXT
NATIONAL WEATHER SERVICE BISMARCK ND
100 PM CDT SUN MAR 29 2015

NOTE: "FAIR" INDICATES FEW OR NO CLOUDS BELOW 12,000 FEET WITH NO
SIGNIFICANT WEATHER AND/OR OBSTRUCTIONS TO VISIBILITY.


CITY           SKY/WX    TMP DP  RH WIND       PRES   REMARKS
WILLISTON      SUNNY     52  38  58 W16       30.05F
MINOT          SUNNY     53  28  38 W17G26    29.99F
MINOT AFB      SUNNY     52  33  47 NW21G26   29.98F
BISMARCK       SUNNY     54  23  30 NW22G29   30.06S
DICKINSON      MOSUNNY   52  34  50 W24G30    30.07F
GARRISON         N/A     51  32  48 NW21G28   30.03S
HETTINGER ARPT NOT AVBL
JAMESTOWN      SUNNY     52  30  43 N29G37    29.95R
BEACH          FAIR      54  32  43 NW26G32   30.09F
CARRINGTON     FAIR      50  25  37 NW25G31   29.97R
CROSBY         FAIR      52  37  58 W18G24    30.01F
HARVEY         FAIR      54  25  32 NW20G26   29.98R
HAZEN          FAIR      52  27  37 W14G24    30.06F
LINTON         FAIR      52  28  40 NW17G30   30.06S
MANDAN         FAIR      50  27  40 NW20G26   30.06S
OAKES            N/A     50  36  57 NW29G37   29.96R
RUGBY            N/A     48  34  57 NW20      29.95F
WATFORD CITY   FAIR      50  36  57 W15G22    30.04F
$$

CITY           SKY/WX    TMP DP  RH WIND       PRES   REMARKS
GRAND FORKS    MOSUNNY   51  32  48 N26G39    29.86R
GRAND FORKS AF NOT AVBL
DEVILS LAKE    SUNNY     50  30  46 NW23G32   29.92S
FARGO          NOT AVBL
CAVALIER       FAIR      48  34  57 NW23G33   29.86R
GWINNER        CLEAR     52  36  54 NW29G38     N/A
ROLLA          FAIR      48  27  43 NW20G31   29.93S
$$

CITY           SKY/WX    TMP DP  RH WIND       PRES   REMARKS
ABERDEEN       SUNNY     56  28  34 NW23G36   30.01R
MOBRIDGE       SUNNY     55  30  38 NW17G28   30.06R
BUFFALO          N/A     54  36  50 W24G33    30.07S
RAPID CITY     SUNNY     58  31  35 N18G24    30.17F
GLASGOW        SUNNY     55  37  50 W14       30.08F
SIDNEY         MOSUNNY   54  37  54 W13G21    30.08F
WOLF POINT     CLOUDY    54  36  50 W12       30.08F
GLENDIVE         N/A     54  34  47 NW14G20   30.11F
MILES CITY     SUNNY     58  34  40 NW10      30.12F
BAKER          MOSUNNY   53  37  54 W21G26    30.12F
$$

CITY           SKY/WX    TMP DP  RH WIND       PRES   REMARKS
BILLINGS       PTSUNNY   56  21  25 SW16G22   30.16F
GREAT FALLS    CLOUDY    51  24  34 SW20      30.13S
REGINA         MOSUNNY   46  41  81 W15       29.99S
ESTEVAN        MOSUNNY   50  34  53 W18       29.99F
$$




USA.gov is the U.S. government's official web portal to all federal, state and local government web resources and services.